Location: Czu?�w
(50.1404°N, 18.9919°E)
Time: 12:08:02
(UTC+00:00)

Cosmos 1486 Rocket - Pass Details

Date: 27 October 2020
Orbit: 758 x 784 km, 74.1° (Epoch: 24 November)

Event Time Altitude Azimuth Distance (km) Brightness Sun altitude
Rises 16:34:59 0° 337° (NNW) 3,286 7.5 -11.1°
Reaches altitude 10° 16:37:26 10° 342° (NNW) 2,354 6.7 -11.5°
Maximum altitude 16:42:44 59° 62° (ENE) 904 4.1 -12.4°
Drops below altitude 10° 16:47:58 10° 142° (SE) 2,332 6.2 -13.2°
Sets 16:50:22 0° 146° (SE) 3,252 7.0 -13.6°
